This is the latest recevied weather packets stored in our database for station/object KC0UFP. If no packets are shown the sender has not sent any weather packets the latest 10 day(s).
| Time | Temp. | Humidity | Pressure | Rain* | Wind** | Luminosity | Snow |
|---|---|---|---|---|---|---|---|
| 1777674580 | 17.78° C | 35% | 1015.1 hPa | 0 mm | - | 311 W/m² | - |
| 1777674278 | 17.78° C | 33% | 1015.2 hPa | 0 mm | - | 194 W/m² | - |
| 1777673974 | 17.78° C | 34% | 1014.9 hPa | 0 mm | - | 361 W/m² | - |
| 1777673671 | 18.33° C | 32% | 1014.8 hPa | 0 mm | - | 397 W/m² | - |
| 1777673368 | 18.89° C | 31% | 1014.9 hPa | 0 mm | - | 499 W/m² | - |
| 1777673066 | 18.33° C | 33% | 1014.9 hPa | 0 mm | - | 485 W/m² | - |
| 1777672761 | 18.33° C | 32% | 1014.6 hPa | 0 mm | - | 386 W/m² | - |
| 1777672459 | 18.33° C | 32% | 1014.5 hPa | 0 mm | - | 539 W/m² | - |
| 1777672154 | 17.78° C | 31% | 1014.6 hPa | 0 mm | - | 555 W/m² | - |
| 1777671849 | 17.78° C | 32% | 1014.4 hPa | 0 mm | - | 578 W/m² | - |
| 1777671545 | 18.33° C | 33% | 1014.7 hPa | 0 mm | - | 600 W/m² | - |
| 1777671242 | 18.33° C | 34% | 1014.6 hPa | 0 mm | - | 618 W/m² | - |
| 1777670937 | 18.33° C | 32% | 1014.9 hPa | 0 mm | - | 643 W/m² | - |
| 1777670635 | 17.78° C | 31% | 1014.9 hPa | 0 mm | - | 671 W/m² | - |
| 1777670332 | 18.33° C | 31% | 1015.1 hPa | 0 mm | - | 711 W/m² | - |
| 1777670029 | 17.78° C | 33% | 1015.2 hPa | 0 mm | - | 632 W/m² | - |
| 1777669726 | 18.33° C | 34% | 1015 hPa | 0 mm | - | 739 W/m² | - |
| 1777669423 | 17.78° C | 32% | 1015.3 hPa | 0 mm | - | 684 W/m² | - |
| 1777669119 | 18.33° C | 30% | 1015.3 hPa | 0 mm | - | 756 W/m² | - |
| 1777668817 | 18.33° C | 31% | 1015.3 hPa | 0 mm | - | 771 W/m² | - |
| 1777668513 | 18.33° C | 32% | 1015.3 hPa | 0 mm | - | 788 W/m² | - |
| 1777668209 | 18.33° C | 33% | 1015.5 hPa | 0 mm | - | 813 W/m² | - |
| 1777667906 | 18.33° C | 31% | 1015.6 hPa | 0 mm | - | 866 W/m² | - |
| 1777667604 | 17.78° C | 33% | 1015.6 hPa | 0 mm | - | 872 W/m² | - |
| 1777667300 | 18.33° C | 32% | 1015.8 hPa | 0 mm | - | 834 W/m² | - |
* Rain latest hour (hover to see other rain measurements)
** Current wind speed in m/s (hover to see current wind gust speed)